FDX67 KSAN-KMEM

Flight info

Callsign FDX67
Flight time N/A
Altitude 35000
Route ZZOOO4 TGOLD PXR KA24Q KA27S KA30U KA33Y NOSEW IRW LITTR HOBRK4
Aircraft B77L/H-SDE1E2E3FGHIJ2J3J4J5M1RWXY/LB1D1

Departure

Time 2026-05-03 20:17
Airport San Diego International Airport (KSAN)

Arrival

Time N/A
Airport Memphis International Airport (KMEM)
Time Latitude Longitude Altitude Speed Heading
2026-05-03 20:15 32.73117 -117.17571 28 ft 0 kts 141°
2026-05-03 20:15 32.73095 -117.17550 26 ft 11 kts 141°
2026-05-03 20:15 32.73027 -117.17549 30 ft 12 kts 243°
2026-05-03 20:16 32.73043 -117.17668 25 ft 25 kts 285°
2026-05-03 20:16 32.73138 -117.18061 23 ft 81 kts 286°
2026-05-03 20:16 32.73349 -117.18928 30 ft 138 kts 286°
2026-05-03 20:16 32.73656 -117.20193 169 ft 166 kts 287°
2026-05-03 20:17 32.73982 -117.21478 744 ft 165 kts 286°
2026-05-03 20:17 32.74322 -117.22825 1208 ft 173 kts 285°
2026-05-03 20:17 32.74664 -117.24227 1695 ft 180 kts 284°
2026-05-03 20:17 32.75002 -117.25707 2085 ft 192 kts 284°
2026-05-03 20:18 32.75368 -117.27291 2416 ft 208 kts 284°
2026-05-03 20:18 32.75765 -117.29009 2857 ft 219 kts 284°
2026-05-03 20:18 32.76172 -117.30784 3436 ft 228 kts 284°
2026-05-03 20:18 32.76511 -117.32622 3955 ft 232 kts 268°
2026-05-03 20:19 32.76040 -117.34421 4455 ft 233 kts 231°
2026-05-03 20:19 32.74758 -117.35560 5064 ft 232 kts 198°
2026-05-03 20:19 32.73173 -117.35719 5746 ft 232 kts 170°
2026-05-03 20:19 32.71662 -117.34998 6384 ft 236 kts 148°
2026-05-03 20:20 32.70431 -117.33650 6879 ft 245 kts 137°
2026-05-03 20:20 32.69258 -117.32144 7419 ft 251 kts 136°
2026-05-03 20:20 32.68074 -117.30605 8022 ft 255 kts 137°
2026-05-03 20:20 32.66829 -117.29036 8432 ft 267 kts 138°
2026-05-03 20:21 32.65528 -117.27416 8971 ft 276 kts 138°
2026-05-03 20:21 32.64213 -117.25751 9655 ft 276 kts 131°
2026-05-03 20:21 32.63312 -117.23694 10304 ft 284 kts 113°
2026-05-03 20:21 32.62813 -117.21382 10825 ft 299 kts 103°
2026-05-03 20:22 32.62548 -117.18865 11121 ft 316 kts 100°
2026-05-03 20:22 32.62342 -117.16193 11524 ft 334 kts 99°
2026-05-03 20:22 32.62155 -117.13372 11886 ft 352 kts 98°
2026-05-03 20:22 32.62018 -117.10391 12128 ft 373 kts 91°
2026-05-03 20:23 32.62539 -117.07271 12332 ft 399 kts 71°
2026-05-03 20:23 32.63662 -117.04195 12731 ft 412 kts 66°
2026-05-03 20:23 32.64896 -117.01095 13494 ft 419 kts 67°
2026-05-03 20:23 32.66060 -116.97896 14016 ft 426 kts 71°
2026-05-03 20:24 32.66843 -116.94485 14348 ft 435 kts 85°
2026-05-03 20:24 32.66996 -116.90905 14922 ft 435 kts 94°
2026-05-03 20:24 32.66919 -116.87282 15445 ft 443 kts 95°
2026-05-03 20:24 32.66910 -116.83603 16164 ft 449 kts 92°
2026-05-03 20:25 32.66983 -116.79870 16864 ft 454 kts 92°
2026-05-03 20:25 32.67081 -116.76093 17474 ft 461 kts 92°
2026-05-03 20:25 32.67151 -116.72259 18033 ft 468 kts 94°
2026-05-03 20:25 32.67103 -116.68383 18603 ft 472 kts 95°
2026-05-03 20:26 32.67004 -116.64516 19173 ft 477 kts 96°
2026-05-03 20:26 32.66903 -116.60561 19725 ft 482 kts 95°
2026-05-03 20:26 32.66817 -116.56516 20300 ft 485 kts 95°
2026-05-03 20:26 32.66743 -116.52535 20793 ft 492 kts 95°
2026-05-03 20:27 32.66677 -116.48442 21265 ft 500 kts 94°
2026-05-03 20:27 32.66610 -116.44295 21783 ft 505 kts 94°
2026-05-03 20:27 32.66624 -116.40115 22322 ft 510 kts 90°
2026-05-03 20:27 32.66924 -116.35886 22792 ft 517 kts 85°
2026-05-03 20:28 32.67378 -116.31634 23287 ft 522 kts 84°
2026-05-03 20:28 32.67867 -116.27345 23719 ft 527 kts 84°
2026-05-03 20:28 32.68332 -116.23012 24142 ft 531 kts 85°
2026-05-03 20:28 32.68757 -116.18644 24588 ft 534 kts 85°
2026-05-03 20:29 32.69153 -116.14242 25025 ft 538 kts 86°
2026-05-03 20:29 32.69538 -116.09807 25398 ft 542 kts 86°
2026-05-03 20:29 32.69929 -116.05340 25843 ft 545 kts 86°
2026-05-03 20:29 32.70327 -116.00855 26284 ft 547 kts 85°
2026-05-03 20:30 32.70739 -115.96358 26733 ft 550 kts 85°
2026-05-03 20:30 32.71161 -115.91821 27031 ft 556 kts 85°
2026-05-03 20:30 32.71590 -115.87229 27349 ft 562 kts 85°
2026-05-03 20:30 32.72018 -115.82608 27719 ft 566 kts 85°
2026-05-03 20:31 32.72447 -115.77951 28144 ft 568 kts 85°
2026-05-03 20:31 32.72873 -115.73275 28533 ft 571 kts 85°
2026-05-03 20:31 32.73299 -115.68578 28907 ft 574 kts 85°
2026-05-03 20:31 32.73724 -115.63851 29308 ft 577 kts 85°
2026-05-03 20:32 32.74150 -115.59115 29806 ft 576 kts 85°
2026-05-03 20:32 32.74574 -115.54379 30256 ft 576 kts 85°
2026-05-03 20:32 32.74973 -115.49709 30648 ft 576 kts 86°
2026-05-03 20:32 32.75219 -115.44964 31001 ft 576 kts 90°
2026-05-03 20:33 32.75332 -115.40202 31364 ft 577 kts 91°
2026-05-03 20:33 32.75386 -115.35433 31758 ft 577 kts 91°
2026-05-03 20:33 32.75431 -115.30659 32129 ft 578 kts 91°
2026-05-03 20:33 32.75493 -115.25885 32502 ft 578 kts 91°
2026-05-03 20:34 32.75577 -115.21106 32862 ft 579 kts 91°
2026-05-03 20:34 32.75678 -115.16327 33213 ft 579 kts 90°
2026-05-03 20:34 32.75787 -115.11544 33553 ft 580 kts 90°
2026-05-03 20:34 32.75897 -115.06755 33884 ft 580 kts 90°
2026-05-03 20:35 32.75969 -115.03582 34077 ft 580 kts 90°
2026-05-03 20:35 32.76073 -114.98792 34384 ft 580 kts 90°
2026-05-03 20:35 32.76173 -114.94011 34701 ft 579 kts 90°
2026-05-03 20:36 32.76364 -114.84386 34819 ft 584 kts 90°
2026-05-03 20:36 32.76548 -114.74776 34819 ft 579 kts 90°
2026-05-03 20:37 32.76724 -114.65259 34828 ft 575 kts 90°
2026-05-03 20:37 32.76886 -114.55769 34834 ft 574 kts 91°
2026-05-03 20:38 32.77017 -114.46286 34836 ft 574 kts 91°
2026-05-03 20:38 32.77137 -114.36792 34832 ft 575 kts 91°
2026-05-03 20:39 32.77255 -114.27291 34832 ft 576 kts 91°
2026-05-03 20:39 32.77367 -114.17768 34821 ft 577 kts 91°
2026-05-03 20:40 32.77474 -114.08233 34798 ft 578 kts 91°
2026-05-03 20:40 32.77572 -113.98681 34795 ft 578 kts 91°
2026-05-03 20:41 32.78414 -113.89204 34807 ft 578 kts 78°
2026-05-03 20:41 32.80050 -113.79850 34806 ft 578 kts 78°
2026-05-03 20:42 32.81454 -113.70441 34804 ft 578 kts 80°
2026-05-03 20:42 32.83609 -113.61366 34819 ft 574 kts 66°
2026-05-03 20:43 32.86657 -113.52593 34819 ft 573 kts 64°
2026-05-03 20:43 32.89690 -113.43816 34826 ft 574 kts 66°
2026-05-03 20:44 32.92562 -113.34944 34832 ft 574 kts 67°
2026-05-03 20:44 32.95369 -113.26037 34834 ft 574 kts 67°
2026-05-03 20:45 32.98176 -113.17138 34832 ft 574 kts 67°
2026-05-03 20:45 33.00990 -113.08243 34837 ft 573 kts 67°
2026-05-03 20:46 33.03777 -112.99422 34844 ft 573 kts 67°
2026-05-03 20:46 33.06573 -112.90541 34844 ft 572 kts 67°
2026-05-03 20:47 33.09357 -112.81663 34853 ft 571 kts 67°
2026-05-03 20:47 33.12134 -112.72792 34842 ft 571 kts 67°
2026-05-03 20:48 33.15341 -112.64172 34856 ft 567 kts 59°
2026-05-03 20:48 33.18983 -112.55837 34850 ft 567 kts 58°
2026-05-03 20:49 33.22590 -112.47466 34902 ft 567 kts 59°
2026-05-03 20:49 33.26093 -112.39027 34944 ft 567 kts 60°
2026-05-03 20:50 33.29559 -112.30572 34918 ft 567 kts 60°
2026-05-03 20:50 33.33026 -112.22125 34938 ft 565 kts 60°
2026-05-03 20:51 33.36489 -112.13686 34875 ft 565 kts 60°
2026-05-03 20:51 33.39948 -112.05238 34883 ft 565 kts 60°
2026-05-03 20:52 33.43364 -111.96761 34887 ft 566 kts 63°
2026-05-03 20:52 33.46142 -111.87919 34864 ft 568 kts 68°
2026-05-03 20:53 33.48717 -111.78960 34908 ft 568 kts 69°
2026-05-03 20:53 33.51305 -111.70009 34905 ft 568 kts 68°
2026-05-03 20:54 33.53910 -111.61134 34890 ft 568 kts 68°
2026-05-03 20:54 33.57855 -111.47722 34878 ft 569 kts 68°
2026-05-03 20:55 33.60473 -111.38772 34862 ft 569 kts 68°
2026-05-03 20:55 33.63086 -111.29803 34865 ft 569 kts 68°
2026-05-03 20:56 33.65692 -111.20844 34875 ft 567 kts 68°
2026-05-03 20:56 33.68276 -111.11894 34874 ft 567 kts 68°
2026-05-03 20:57 33.70865 -111.02934 34873 ft 569 kts 68°
2026-05-03 20:57 33.73456 -110.93934 34880 ft 570 kts 68°
2026-05-03 20:58 33.76040 -110.84923 34873 ft 570 kts 68°
2026-05-03 20:58 33.78599 -110.75969 34894 ft 565 kts 68°
2026-05-03 20:59 33.81143 -110.67043 34895 ft 563 kts 68°
2026-05-03 20:59 33.83673 -110.58145 34897 ft 562 kts 68°
2026-05-03 21:00 33.85771 -110.50739 34902 ft 563 kts 68°
2026-05-03 21:00 33.88700 -110.40372 34906 ft 563 kts 68°
2026-05-03 21:01 33.91212 -110.31450 34906 ft 563 kts 68°
2026-05-03 21:01 33.93717 -110.22525 34925 ft 563 kts 68°
2026-05-03 21:02 33.96214 -110.13595 34964 ft 563 kts 68°
2026-05-03 21:02 33.98707 -110.04655 35016 ft 563 kts 68°
2026-05-03 21:03 34.01172 -109.95692 35039 ft 564 kts 69°
2026-05-03 21:03 34.03504 -109.86671 35041 ft 564 kts 70°
2026-05-03 21:04 34.05800 -109.77628 35033 ft 564 kts 70°
2026-05-03 21:04 34.08109 -109.68583 35003 ft 564 kts 70°
2026-05-03 21:05 34.10425 -109.59538 35069 ft 564 kts 70°
2026-05-03 21:05 34.12735 -109.50502 35132 ft 563 kts 70°
2026-05-03 21:06 34.15034 -109.41471 35193 ft 563 kts 70°
2026-05-03 21:06 34.17326 -109.32433 35189 ft 563 kts 70°
2026-05-03 21:07 34.19615 -109.23375 35190 ft 563 kts 70°
2026-05-03 21:07 34.21880 -109.14377 35124 ft 564 kts 70°
2026-05-03 21:08 34.24155 -109.05309 35057 ft 564 kts 70°
2026-05-03 21:08 34.26429 -108.96218 34995 ft 564 kts 70°
2026-05-03 21:09 34.28694 -108.87129 34960 ft 565 kts 70°
2026-05-03 21:09 34.30952 -108.78035 34951 ft 565 kts 70°
2026-05-03 21:10 34.33204 -108.68931 34953 ft 565 kts 70°
2026-05-03 21:10 34.35449 -108.59824 34945 ft 565 kts 70°
2026-05-03 21:11 34.37685 -108.50726 34954 ft 564 kts 70°
2026-05-03 21:11 34.39912 -108.41628 34945 ft 564 kts 70°
2026-05-03 21:12 34.42131 -108.32532 34943 ft 563 kts 70°
2026-05-03 21:12 34.44342 -108.23437 34939 ft 563 kts 70°
2026-05-03 21:13 34.46546 -108.14334 34936 ft 563 kts 70°
2026-05-03 21:13 34.48744 -108.05225 34941 ft 562 kts 70°
2026-05-03 21:14 34.50940 -107.96195 34944 ft 562 kts 70°
2026-05-03 21:14 34.53283 -107.87141 34935 ft 562 kts 69°
2026-05-03 21:15 34.55655 -107.78098 34937 ft 563 kts 69°
2026-05-03 21:15 34.58005 -107.69030 34939 ft 563 kts 69°
2026-05-03 21:16 34.60332 -107.59953 34932 ft 563 kts 69°
2026-05-03 21:16 34.62648 -107.50868 34937 ft 563 kts 69°
2026-05-03 21:17 34.64567 -107.43322 34933 ft 563 kts 69°
2026-05-03 21:17 34.67256 -107.32718 34942 ft 561 kts 69°
2026-05-03 21:18 34.69545 -107.23662 34954 ft 560 kts 69°
2026-05-03 21:18 34.71822 -107.14620 34960 ft 559 kts 69°
2026-05-03 21:19 34.74085 -107.05604 34969 ft 557 kts 69°
2026-05-03 21:19 34.76339 -106.96590 34980 ft 556 kts 69°
2026-05-03 21:20 34.78567 -106.87651 34999 ft 555 kts 69°
2026-05-03 21:20 34.80800 -106.78663 35044 ft 555 kts 69°
2026-05-03 21:21 34.83027 -106.69664 35080 ft 555 kts 69°
2026-05-03 21:21 34.85246 -106.60666 35111 ft 555 kts 69°
2026-05-03 21:22 34.87464 -106.51641 35113 ft 557 kts 69°
2026-05-03 21:22 34.89678 -106.42599 35104 ft 558 kts 69°
2026-05-03 21:23 34.91891 -106.33528 35089 ft 559 kts 69°
2026-05-03 21:23 34.94084 -106.24507 35053 ft 559 kts 69°